Location: Hillern
(53.0557°N, 9.8577°E)
Time: 21:17:48
(UTC+00:00)

Cosmos 2184 Rocket - Pass Details

Date: 19 May 2025
Orbit: 959 x 1000 km, 82.9° (Epoch: 15 June)

Event Time Altitude Azimuth Distance (km) Brightness Sun altitude
Rises 19:51:27 0° 348° (NNW) 3,675 8.0 -4.6°
Reaches altitude 10° 19:53:58 10° 346° (NNW) 2,729 7.4 -4.8°
Maximum altitude 20:00:10 68° 265° (W) 1,051 4.4 -5.5°
Drops below altitude 10° 20:06:23 10° 184° (S) 2,739 6.0 -6.2°
Sets 20:08:55 0° 182° (S) 3,689 6.6 -6.4°
